Regional Weather Roundup
Issued by NWS

Home | Current Version | Previous Version | Text Only | Print | Product List | Glossary On
Versions: 1 2 3 4 5 6 7 8 9 10 11 12 13 14 15 16 17 18 19 20 21 22 23 24 25 26 27 28 29 30 31 32 33 34 35 36 37 38 39 40 41 42 43 44 45 46 47 48 49 50
000
ASUS43 KLMK 151502
RWRKY
KENTUCKY REGIONAL WEATHER ROUNDUP
NATIONAL WEATHER SERVICE LOUISVILLE KY
1100 AM EDT TUE APR 15 2014

NOTE "FAIR" INDICATES FEW OR NO CLOUDS BELOW 12,000 FEET
WITH NO SIGNIFICANT WEATHER AND/OR OBSTRUCTIONS TO VISIBILITY.

KYZ001>023-026-027-061>063-070>075-151600-
WESTERN AND SOUTH CENTRAL KENTUCKY

CITY           SKY/WX    TMP DP  RH WIND       PRES   REMARKS
PADUCAH        MOSUNNY   42  23  46 N14       30.19R
HENDERSON      PTSUNNY   36  25  64 N12G20    30.16R WCI  27
OWENSBORO      PTSUNNY   37  24  60 N14G22    30.14R WCI  28
HOPKINSVILLE   PTSUNNY   38  27  64 NW13G18   30.13R WCI  30
BOWLING GREEN  PTSUNNY   40  22  48 NW14G23   30.09R WCI  32
GLASGOW        NOT AVBL
$$

KYZ024-025-028>034-038-045-046-053-151600-
NORTH CENTRAL KENTUCKY

CITY           SKY/WX    TMP DP  RH WIND       PRES   REMARKS
LOUISVILLE/SDF CLOUDY    38  29  70 NW17      30.07R WCI  28
LOUISVILLE/LOU CLOUDY    39  29  67 NW13G21   30.07R WCI  31
FORT KNOX      MOSUNNY   38  29  69 NW16      30.05R WCI  29
$$

KYZ035>037-039>044-047>052-055>060-089>105-151600-
NORTHEAST KENTUCKY

CITY           SKY/WX    TMP DP  RH WIND       PRES   REMARKS
LEXINGTON      CLOUDY    36  29  75 NW14      30.00F WCI  27
COVINGTON      PTSUNNY   35  25  66 N18       30.03R WCI  24
FRANKFORT      CLOUDY    35  30  82 NW12      30.02R WCI  27
$$

KYZ054-064>069-076>088-106>120-151600-
SOUTHEAST KENTUCKY

CITY           SKY/WX    TMP DP  RH WIND       PRES   REMARKS
JACKSON        SNOW      32  29  88 CALM      29.96S VSB 1/2
LONDON         LGT SNOW  33  30  88 NW8       30.00R VSB 1   WCI  26
SOMERSET       NOT AVBL
MIDDLESBORO    NOT AVBL
MONTICELLO     FLURRIES  35  32  89 NW10      30.05R WCI  27
$$




USA.gov is the U.S. government's official web portal to all federal, state and local government web resources and services.